| time (UTC) | temp F | wind direction | speed MPH | gust MPH | rain 1hr in | rain 24hr in | rain mn in | humidity % | barometer mb |
| 20260906141300 | 53 | 254 | 1.0 | 7.0 | 0.00 | 0.00 | 0.00 | 63 | 1026.9 |
| 20260906140800 | 54 | 202 | 1.0 | 7.0 | 0.00 | 0.00 | 0.00 | 63 | 1026.9 |
| 20260906140259 | 54 | 251 | 0.0 | 1.0 | 0.00 | 0.00 | 0.00 | 61 | 1026.9 |
| 20260906135800 | 54 | 164 | 1.0 | 5.0 | 0.00 | 0.00 | 0.00 | 65 | 1026.9 |
| 20260906135300 | 52 | 260 | 2.0 | 8.0 | 0.00 | 0.00 | 0.00 | 67 | 1027.0 |
| 20260906135030 | 52 | 214 | 3.0 | 8.0 | 0.00 | 0.00 | 0.00 | 67 | 1026.9 |
| 20260906134259 | 52 | 222 | 2.0 | 8.0 | 0.00 | 0.00 | 0.00 | 67 | 1026.9 |
| 20260906133800 | 52 | 228 | 1.0 | 8.0 | 0.00 | 0.00 | 0.00 | 68 | 1026.9 |
| 20260906133259 | 52 | 247 | 1.0 | 5.0 | 0.00 | 0.00 | 0.00 | 69 | 1027.0 |
| 20260906132759 | 51 | 197 | 3.0 | 11.0 | 0.00 | 0.00 | 0.00 | 69 | 1027.0 |
| 20260906132259 | 51 | 213 | 3.0 | 11.0 | 0.00 | 0.00 | 0.00 | 69 | 1026.9 |
| 20260906131800 | 51 | 233 | 1.0 | 6.0 | 0.00 | 0.00 | 0.00 | 69 | 1026.9 |
| 20260906131300 | 51 | 224 | 2.0 | 7.0 | 0.00 | 0.00 | 0.00 | 68 | 1027.0 |
| 20260906130800 | 51 | 241 | 2.0 | 7.0 | 0.00 | 0.00 | 0.00 | 69 | 1026.9 |
| 20260906130300 | 51 | 271 | 0.0 | 7.0 | 0.00 | 0.00 | 0.00 | 70 | 1026.8 |
| 20260906125759 | 51 | 254 | 0.0 | 7.0 | 0.00 | 0.00 | 0.00 | 71 | 1027.0 |
| 20260906125258 | 51 | 208 | 1.0 | 5.0 | 0.00 | 0.00 | 0.00 | 71 | 1026.8 |
| 20260906124757 | 51 | 244 | 2.0 | 9.0 | 0.00 | 0.00 | 0.00 | 72 | 1026.9 |
| 20260906124254 | 51 | 220 | 2.0 | 9.0 | 0.00 | 0.00 | 0.00 | 72 | 1026.9 |
| 20260906123752 | 50 | 249 | 2.0 | 8.0 | 0.00 | 0.00 | 0.00 | 73 | 1026.9 |
| 20260906123522 | 50 | 168 | 2.0 | 7.0 | 0.00 | 0.00 | 0.00 | 73 | 1026.9 |
| 20260906122750 | 50 | 220 | 2.0 | 10.0 | 0.00 | 0.00 | 0.00 | 73 | 1026.9 |
| 20260906122251 | 50 | 222 | 2.0 | 10.0 | 0.00 | 0.00 | 0.00 | 74 | 1026.9 |
| 20260906121748 | 50 | 239 | 4.0 | 8.0 | 0.00 | 0.00 | 0.00 | 74 | 1026.9 |
| 20260906121244 | 49 | 206 | 4.0 | 8.0 | 0.00 | 0.00 | 0.00 | 74 | 1026.9 |
| 20260906120740 | 49 | 243 | 4.0 | 8.0 | 0.00 | 0.00 | 0.00 | 74 | 1026.9 |
| 20260906120238 | 49 | 212 | 5.0 | 9.0 | 0.00 | 0.00 | 0.00 | 75 | 1026.8 |
| 20260906120005 | 49 | 203 | 3.0 | 9.0 | 0.00 | 0.00 | 0.00 | 76 | 1026.7 |
| 20260906115232 | 49 | 236 | 3.0 | 11.0 | 0.00 | 0.00 | 0.00 | 76 | 1026.6 |
| 20260906115004 | 49 | 208 | 2.0 | 11.0 | 0.00 | 0.00 | 0.00 | 76 | 1026.5 |
| 20260906114228 | 49 | 241 | 1.0 | 5.0 | 0.00 | 0.00 | 0.00 | 77 | 1026.5 |
| 20260906113722 | 48 | 229 | 1.0 | 8.0 | 0.00 | 0.00 | 0.00 | 77 | 1026.5 |
| 20260906113217 | 48 | 250 | 2.0 | 8.0 | 0.00 | 0.00 | 0.00 | 77 | 1026.5 |
| 20260906113211 | 48 | 226 | 1.0 | 7.0 | 0.00 | 0.00 | 0.00 | 77 | 1026.6 |
| 20260906112208 | 48 | 227 | 0.0 | 7.0 | 0.00 | 0.00 | 0.00 | 77 | 1026.6 |
| 20260906111703 | 47 | 256 | 0.0 | 4.0 | 0.00 | 0.00 | 0.00 | 77 | 1026.7 |
| 20260906111424 | 47 | 260 | 1.0 | 7.0 | 0.00 | 0.00 | 0.00 | 77 | 1026.8 |
| 20260906110645 | 47 | 240 | 0.0 | 7.0 | 0.00 | 0.00 | 0.00 | 77 | 1026.8 |
| 20260906110130 | 47 | 241 | 0.0 | 1.0 | 0.00 | 0.00 | 0.00 | 77 | 1026.7 |
| 20260906105630 | 47 | 227 | 0.0 | 1.0 | 0.00 | 0.00 | 0.00 | 78 | 1026.8 |
| 20260906105129 | 47 | 227 | 0.0 | 0.0 | 0.00 | 0.00 | 0.00 | 79 | 1026.8 |
| 20260906104625 | 47 | 227 | 0.0 | 0.0 | 0.00 | 0.00 | 0.00 | 81 | 1026.8 |
| 20260906104116 | 47 | 227 | 0.0 | 0.0 | 0.00 | 0.00 | 0.00 | 82 | 1026.8 |
| 20260906103605 | 47 | 227 | 0.0 | 0.0 | 0.00 | 0.00 | 0.00 | 82 | 1026.7 |
| 20260906103054 | 46 | 228 | 0.0 | 0.0 | 0.00 | 0.00 | 0.00 | 82 | 1026.7 |
| 20260906102536 | 46 | 227 | 0.0 | 0.0 | 0.00 | 0.00 | 0.00 | 83 | 1026.8 |
| 20260906102026 | 46 | 227 | 0.0 | 0.0 | 0.00 | 0.00 | 0.00 | 83 | 1026.7 |
| 20260906101517 | 46 | 227 | 0.0 | 0.0 | 0.00 | 0.00 | 0.00 | 82 | 1026.5 |
| 20260906101006 | 45 | 227 | 0.0 | 0.0 | 0.00 | 0.00 | 0.00 | 82 | 1026.4 |
| 20260906100725 | 45 | 227 | 0.0 | 0.0 | 0.00 | 0.00 | 0.00 | 82 | 1026.3 |
| 20260906095944 | 45 | 227 | 0.0 | 0.0 | 0.00 | 0.00 | 0.00 | 81 | 1026.3 |
| 20260906095658 | 45 | 227 | 0.0 | 0.0 | 0.00 | 0.00 | 0.00 | 80 | 1026.1 |
| 20260906095154 | 45 | 227 | 0.0 | 0.0 | 0.00 | 0.00 | 0.00 | 80 | 1026.1 |
| 20260906094414 | 46 | 227 | 0.0 | 0.0 | 0.00 | 0.00 | 0.00 | 80 | 1026.0 |
| 20260906093905 | 46 | 227 | 0.0 | 0.0 | 0.00 | 0.00 | 0.00 | 80 | 1026.0 |
| 20260906093351 | 46 | 227 | 0.0 | 0.0 | 0.00 | 0.00 | 0.00 | 80 | 1025.8 |
| 20260906092841 | 46 | 227 | 0.0 | 0.0 | 0.00 | 0.00 | 0.00 | 79 | 1025.7 |
| 20260906092332 | 47 | 227 | 0.0 | 0.0 | 0.00 | 0.00 | 0.00 | 78 | 1025.6 |
| 20260906091822 | 47 | 227 | 0.0 | 0.0 | 0.00 | 0.00 | 0.00 | 78 | 1025.5 |
| 20260906091306 | 47 | 227 | 0.0 | 0.0 | 0.00 | 0.00 | 0.00 | 77 | 1025.5 |
| 20260906090752 | 47 | 227 | 0.0 | 0.0 | 0.00 | 0.00 | 0.00 | 77 | 1025.3 |
| 20260906090242 | 47 | 227 | 0.0 | 0.0 | 0.00 | 0.00 | 0.00 | 77 | 1025.2 |
| 20260906085729 | 47 | 227 | 0.0 | 0.0 | 0.00 | 0.00 | 0.00 | 77 | 1025.0 |
| 20260906085217 | 47 | 226 | 0.0 | 0.0 | 0.00 | 0.00 | 0.00 | 76 | 1025.0 |
| 20260906084704 | 47 | 226 | 0.0 | 0.0 | 0.00 | 0.00 | 0.00 | 76 | 1024.9 |
| 20260906084154 | 47 | 226 | 0.0 | 0.0 | 0.00 | 0.00 | 0.00 | 76 | 1024.7 |
| 20260906083642 | 48 | 226 | 0.0 | 0.0 | 0.00 | 0.00 | 0.00 | 76 | 1024.8 |
| 20260906083407 | 48 | 226 | 0.0 | 0.0 | 0.00 | 0.00 | 0.00 | 75 | 1024.8 |
| 20260906082633 | 48 | 226 | 0.0 | 0.0 | 0.00 | 0.00 | 0.00 | 75 | 1024.7 |
| 20260906082135 | 48 | 216 | 0.0 | 4.0 | 0.00 | 0.00 | 0.00 | 75 | 1024.7 |
| 20260906081623 | 48 | 210 | 1.0 | 7.0 | 0.00 | 0.00 | 0.00 | 74 | 1024.6 |
| 20260906081347 | 48 | 235 | 1.0 | 7.0 | 0.00 | 0.00 | 0.00 | 74 | 1024.7 |
| 20260906080837 | 48 | 241 | 0.0 | 6.0 | 0.00 | 0.00 | 0.00 | 74 | 1024.6 |
| 20260906080052 | 49 | 285 | 0.0 | 6.0 | 0.00 | 0.00 | 0.00 | 74 | 1024.5 |
| 20260906075541 | 49 | 264 | 0.0 | 5.0 | 0.00 | 0.00 | 0.00 | 74 | 1024.6 |
| 20260906075306 | 49 | 245 | 1.0 | 5.0 | 0.00 | 0.00 | 0.00 | 74 | 1024.5 |
| 20260906074754 | 49 | 251 | 2.0 | 6.0 | 0.00 | 0.00 | 0.00 | 74 | 1024.5 |
| 20260906074023 | 49 | 214 | 3.0 | 6.0 | 0.00 | 0.00 | 0.00 | 75 | 1024.3 |
| 20260906073522 | 49 | 245 | 2.0 | 6.0 | 0.00 | 0.00 | 0.00 | 76 | 1024.4 |
| 20260906073019 | 49 | 230 | 1.0 | 5.0 | 0.00 | 0.00 | 0.00 | 76 | 1024.3 |
| 20260906072751 | 49 | 244 | 1.0 | 5.0 | 0.00 | 0.00 | 0.00 | 76 | 1024.2 |
| 20260906072017 | 50 | 256 | 0.0 | 5.0 | 0.00 | 0.00 | 0.00 | 76 | 1024.2 |
| 20260906071749 | 50 | 264 | 0.0 | 1.0 | 0.00 | 0.00 | 0.00 | 76 | 1024.2 |
| 20260906071017 | 50 | 247 | 0.0 | 1.0 | 0.00 | 0.00 | 0.00 | 75 | 1024.2 |
| 20260906070515 | 50 | 254 | 0.0 | 1.0 | 0.00 | 0.00 | 0.00 | 75 | 1024.1 |
| 20260906070015 | 50 | 231 | 0.0 | 0.0 | 0.00 | 0.00 | 0.00 | 74 | 1024.2 |
| 20260906065856 | 51 | 231 | 0.0 | 0.0 | 0.00 | 0.00 | 0.00 | 74 | 1024.1 |
| 20260906065745 | 50 | 231 | 0.0 | 0.0 | 0.00 | 0.00 | 0.00 | 74 | 1024.1 |
| 20260906064509 | 51 | 229 | 0.0 | 5.0 | 0.00 | 0.00 | 0.00 | 73 | 1024.1 |
| 20260906064008 | 51 | 229 | 0.0 | 5.0 | 0.00 | 0.00 | 0.00 | 73 | 1023.9 |
| 20260906063509 | 51 | 231 | 0.0 | 3.0 | 0.00 | 0.00 | 0.00 | 73 | 1023.9 |
| 20260906063239 | 51 | 230 | 0.0 | 6.0 | 0.00 | 0.00 | 0.00 | 73 | 1023.9 |
| 20260906062507 | 51 | 230 | 2.0 | 6.0 | 0.00 | 0.00 | 0.00 | 73 | 1023.9 |
| 20260906062005 | 51 | 230 | 3.0 | 7.0 | 0.00 | 0.00 | 0.00 | 72 | 1024.0 |
| 20260906061505 | 51 | 253 | 2.0 | 7.0 | 0.00 | 0.00 | 0.00 | 72 | 1023.9 |
| 20260906061012 | 52 | 218 | 3.0 | 7.0 | 0.00 | 0.00 | 0.00 | 72 | 1023.9 |
| 20260906061005 | 52 | 225 | 3.0 | 7.0 | 0.00 | 0.00 | 0.00 | 72 | 1023.9 |
| 20260906060006 | 52 | 247 | 3.0 | 8.0 | 0.00 | 0.00 | 0.00 | 73 | 1023.9 |
| 20260906055456 | 52 | 265 | 3.0 | 9.0 | 0.00 | 0.00 | 0.00 | 73 | 1023.9 |
| 20260906054952 | 52 | 215 | 1.0 | 9.0 | 0.00 | 0.00 | 0.00 | 74 | 1023.8 |
| 20260906054444 | 52 | 229 | 1.0 | 7.0 | 0.00 | 0.00 | 0.00 | 75 | 1023.8 |
| 20260906053945 | 52 | 246 | 2.0 | 7.0 | 0.00 | 0.00 | 0.00 | 75 | 1023.8 |
| 20260906053428 | 52 | 226 | 2.0 | 7.0 | 0.00 | 0.00 | 0.00 | 76 | 1023.8 |
| 20260906053200 | 52 | 209 | 3.0 | 7.0 | 0.00 | 0.00 | 0.00 | 78 | 1023.6 |
| 20260906052429 | 52 | 237 | 2.0 | 7.0 | 0.00 | 0.00 | 0.00 | 80 | 1023.5 |
| 20260906052157 | 53 | 222 | 2.0 | 7.0 | 0.00 | 0.00 | 0.00 | 82 | 1023.5 |
| 20260906051428 | 53 | 202 | 1.0 | 7.0 | 0.00 | 0.00 | 0.00 | 83 | 1023.4 |
| 20260906051158 | 53 | 243 | 0.0 | 0.0 | 0.00 | 0.00 | 0.00 | 84 | 1023.1 |
| 20260906050427 | 53 | 229 | 0.0 | 0.0 | 0.00 | 0.00 | 0.00 | 84 | 1022.9 |
| 20260906045923 | 53 | 229 | 0.0 | 0.0 | 0.00 | 0.00 | 0.00 | 84 | 1023.0 |
| 20260906045421 | 53 | 124 | 0.0 | 0.0 | 0.00 | 0.00 | 0.00 | 84 | 1022.9 |
| 20260906044918 | 53 | 124 | 0.0 | 0.0 | 0.00 | 0.00 | 0.00 | 83 | 1022.9 |
| 20260906044415 | 53 | 124 | 0.0 | 0.0 | 0.00 | 0.00 | 0.00 | 82 | 1022.8 |
| 20260906043914 | 54 | 124 | 0.0 | 0.0 | 0.00 | 0.00 | 0.00 | 82 | 1022.7 |
| 20260906043640 | 54 | 124 | 0.0 | 0.0 | 0.00 | 0.00 | 0.00 | 81 | 1022.6 |
| 20260906042910 | 54 | 124 | 0.0 | 0.0 | 0.00 | 0.00 | 0.00 | 81 | 1022.5 |
| 20260906042407 | 54 | 123 | 0.0 | 0.0 | 0.00 | 0.00 | 0.00 | 80 | 1022.4 |
| 20260906041906 | 54 | 123 | 0.0 | 0.0 | 0.00 | 0.00 | 0.00 | 79 | 1022.3 |
| 20260906041351 | 54 | 123 | 0.0 | 0.0 | 0.00 | 0.00 | 0.00 | 78 | 1022.3 |
| 20260906040850 | 54 | 123 | 0.0 | 0.0 | 0.00 | 0.00 | 0.00 | 78 | 1022.2 |
| 20260906040346 | 54 | 123 | 0.0 | 0.0 | 0.00 | 0.00 | 0.00 | 79 | 1022.3 |
| 20260906035844 | 54 | 123 | 0.0 | 0.0 | 0.00 | 0.00 | 0.00 | 79 | 1022.3 |
| 20260906035345 | 54 | 123 | 0.0 | 0.0 | 0.00 | 0.00 | 0.00 | 80 | 1022.2 |
| 20260906034845 | 54 | 122 | 0.0 | 0.0 | 0.00 | 0.00 | 0.00 | 81 | 1022.2 |
| 20260906034345 | 54 | 122 | 0.0 | 0.0 | 0.00 | 0.00 | 0.00 | 81 | 1022.2 |
| 20260906034115 | 54 | 122 | 0.0 | 0.0 | 0.00 | 0.00 | 0.00 | 80 | 1022.2 |
| 20260906033344 | 54 | 122 | 0.0 | 0.0 | 0.00 | 0.00 | 0.00 | 80 | 1022.2 |
| 20260906033114 | 54 | 122 | 0.0 | 0.0 | 0.00 | 0.00 | 0.00 | 80 | 1022.1 |
| 20260906032343 | 54 | 122 | 0.0 | 0.0 | 0.00 | 0.00 | 0.00 | 80 | 1022.1 |
| 20260906031839 | 54 | 122 | 0.0 | 0.0 | 0.00 | 0.00 | 0.00 | 80 | 1022.1 |
| 20260906031339 | 55 | 122 | 0.0 | 0.0 | 0.00 | 0.00 | 0.00 | 80 | 1022.2 |
| 20260906030850 | 55 | 122 | 0.0 | 0.0 | 0.00 | 0.00 | 0.00 | 80 | 1022.1 |
| 20260906030620 | 55 | 122 | 0.0 | 0.0 | 0.00 | 0.00 | 0.00 | 79 | 1021.9 |
| 20260906030110 | 55 | 122 | 0.0 | 0.0 | 0.00 | 0.00 | 0.00 | 79 | 1021.9 |
| 20260906025338 | 55 | 122 | 1.0 | 5.0 | 0.00 | 0.00 | 0.00 | 78 | 1021.9 |
| 20260906024835 | 55 | 122 | 1.0 | 5.0 | 0.00 | 0.00 | 0.00 | 78 | 1021.8 |
| 20260906024335 | 55 | 124 | 0.0 | 5.0 | 0.00 | 0.00 | 0.00 | 78 | 1021.8 |
| 20260906023836 | 55 | 120 | 0.0 | 1.0 | 0.00 | 0.00 | 0.00 | 78 | 1021.6 |
| 20260906023334 | 55 | 107 | 0.0 | 1.0 | 0.00 | 0.00 | 0.00 | 79 | 1021.7 |
| 20260906022832 | 55 | 106 | 0.0 | 1.0 | 0.00 | 0.00 | 0.00 | 79 | 1021.7 |
| 20260906022604 | 55 | 122 | 0.0 | 1.0 | 0.00 | 0.00 | 0.00 | 79 | 1021.6 |
| 20260906021829 | 55 | 120 | 0.0 | 1.0 | 0.00 | 0.00 | 0.00 | 80 | 1021.5 |
| 20260906021331 | 55 | 112 | 0.0 | 0.0 | 0.00 | 0.00 | 0.00 | 80 | 1021.5 |
| 20260906020829 | 55 | 112 | 0.0 | 0.0 | 0.00 | 0.00 | 0.00 | 80 | 1021.5 |
| 20260906020600 | 55 | 112 | 0.0 | 0.0 | 0.00 | 0.00 | 0.00 | 81 | 1021.4 |
| 20260906015831 | 55 | 112 | 0.0 | 0.0 | 0.00 | 0.00 | 0.00 | 81 | 1021.3 |
| 20260906015600 | 55 | 112 | 0.0 | 0.0 | 0.00 | 0.00 | 0.00 | 80 | 1021.3 |
| 20260906014830 | 55 | 112 | 0.0 | 0.0 | 0.00 | 0.00 | 0.00 | 80 | 1021.2 |
| 20260906014329 | 56 | 112 | 0.0 | 0.0 | 0.00 | 0.00 | 0.00 | 80 | 1021.2 |
| 20260906013828 | 56 | 89 | 0.0 | 1.0 | 0.00 | 0.00 | 0.00 | 80 | 1021.1 |
| 20260906013328 | 56 | 89 | 0.0 | 1.0 | 0.00 | 0.00 | 0.00 | 79 | 1021.1 |
| 20260906012829 | 56 | 91 | 1.0 | 7.0 | 0.00 | 0.00 | 0.00 | 79 | 1021.0 |
| 20260906012326 | 56 | 87 | 1.0 | 7.0 | 0.00 | 0.00 | 0.00 | 78 | 1021.0 |
| 20260906011825 | 57 | 97 | 1.0 | 8.0 | 0.00 | 0.00 | 0.00 | 78 | 1021.0 |
| 20260906011325 | 57 | 93 | 2.0 | 8.0 | 0.00 | 0.00 | 0.00 | 77 | 1020.8 |
| 20260906010825 | 57 | 95 | 1.0 | 7.0 | 0.00 | 0.00 | 0.00 | 76 | 1020.9 |
| 20260906010556 | 57 | 120 | 0.0 | 7.0 | 0.00 | 0.00 | 0.00 | 76 | 1020.9 |
| 20260906005823 | 58 | 148 | 0.0 | 6.0 | 0.00 | 0.00 | 0.00 | 75 | 1020.7 |
| 20260906005324 | 58 | 117 | 1.0 | 9.0 | 0.00 | 0.00 | 0.00 | 75 | 1020.6 |
| 20260906004822 | 58 | 145 | 1.0 | 9.0 | 0.00 | 0.00 | 0.00 | 75 | 1020.6 |
| 20260906004320 | 58 | 161 | 1.0 | 8.0 | 0.00 | 0.00 | 0.00 | 75 | 1020.6 |
| 20260906003821 | 58 | 137 | 1.0 | 8.0 | 0.00 | 0.00 | 0.00 | 75 | 1020.4 |
| 20260906003321 | 58 | 91 | 0.0 | 2.0 | 0.00 | 0.00 | 0.00 | 75 | 1020.5 |
| 20260906002820 | 58 | 147 | 0.0 | 0.0 | 0.00 | 0.00 | 0.00 | 76 | 1020.4 |
| 20260906002319 | 58 | 164 | 0.0 | 0.0 | 0.00 | 0.00 | 0.00 | 77 | 1020.3 |
| 20260906001816 | 58 | 214 | 0.0 | 2.0 | 0.00 | 0.00 | 0.00 | 77 | 1020.0 |
| 20260906001314 | 58 | 222 | 0.0 | 2.0 | 0.00 | 0.00 | 0.00 | 77 | 1019.8 |
| 20260906001039 | 57 | 206 | 0.0 | 3.0 | 0.00 | 0.00 | 0.00 | 78 | 1020.0 |
| 20260906000308 | 57 | 175 | 0.0 | 3.0 | 0.00 | 0.00 | 0.00 | 79 | 1019.9 |
| 20260905235808 | 57 | 90 | 0.0 | 1.0 | 0.00 | 0.00 | 0.00 | 79 | 1019.4 |
| 20260905235307 | 57 | 99 | 0.0 | 1.0 | 0.00 | 0.00 | 0.00 | 79 | 1019.4 |
| 20260905234806 | 58 | 90 | 0.0 | 1.0 | 0.00 | 0.00 | 0.00 | 78 | 1019.3 |
| 20260905234300 | 58 | 89 | 0.0 | 1.0 | 0.00 | 0.00 | 0.00 | 78 | 1019.2 |
| 20260905233756 | 58 | 99 | 0.0 | 2.0 | 0.00 | 0.00 | 0.00 | 78 | 1019.1 |
| 20260905233254 | 58 | 89 | 0.0 | 2.0 | 0.00 | 0.00 | 0.00 | 78 | 1019.0 |
| 20260905232753 | 58 | 121 | 0.0 | 1.0 | 0.00 | 0.00 | 0.00 | 77 | 1018.9 |
| 20260905232247 | 58 | 92 | 0.0 | 1.0 | 0.00 | 0.00 | 0.00 | 77 | 1018.9 |
| 20260905231736 | 58 | 80 | 0.0 | 1.0 | 0.00 | 0.00 | 0.00 | 76 | 1018.8 |
| 20260905231232 | 58 | 99 | 0.0 | 1.0 | 0.00 | 0.00 | 0.00 | 76 | 1018.8 |
| 20260905230956 | 58 | 92 | 0.0 | 1.0 | 0.00 | 0.00 | 0.00 | 76 | 1018.7 |
| 20260905230214 | 58 | 93 | 0.0 | 1.0 | 0.00 | 0.00 | 0.00 | 75 | 1018.5 |
| 20260905225705 | 59 | 91 | 0.0 | 1.0 | 0.00 | 0.00 | 0.00 | 75 | 1018.5 |
| 20260905225153 | 59 | 118 | 0.0 | 1.0 | 0.00 | 0.00 | 0.00 | 74 | 1018.5 |
| 20260905224644 | 59 | 77 | 0.0 | 1.0 | 0.00 | 0.00 | 0.00 | 74 | 1018.5 |
| 20260905224132 | 59 | 96 | 0.0 | 1.0 | 0.00 | 0.00 | 0.00 | 73 | 1018.4 |
| 20260905223624 | 59 | 93 | 0.0 | 1.0 | 0.00 | 0.00 | 0.00 | 73 | 1018.4 |
| 20260905223118 | 60 | 96 | 0.0 | 1.0 | 0.00 | 0.00 | 0.00 | 73 | 1018.4 |
| 20260905222616 | 60 | 99 | 0.0 | 1.0 | 0.00 | 0.00 | 0.00 | 72 | 1018.3 |
| 20260905222110 | 60 | 125 | 0.0 | 1.0 | 0.00 | 0.00 | 0.00 | 71 | 1018.1 |
| 20260905221603 | 60 | 101 | 0.0 | 1.0 | 0.00 | 0.00 | 0.00 | 71 | 1018.2 |
| 20260905221055 | 60 | 100 | 0.0 | 1.0 | 0.00 | 0.00 | 0.00 | 71 | 1018.1 |
| 20260905220031 | 61 | 100 | 0.0 | 1.0 | 0.00 | 0.00 | 0.00 | 70 | 1018.0 |
| 20260905215514 | 61 | 99 | 0.0 | 1.0 | 0.00 | 0.00 | 0.00 | 68 | 1018.1 |
| 20260905215005 | 62 | 171 | 0.0 | 0.0 | 0.00 | 0.00 | 0.00 | 67 | 1018.0 |
| 20260905214954 | 62 | 196 | 0.0 | 0.0 | 0.00 | 0.00 | 0.00 | 67 | 1018.0 |
| 20260905213941 | 63 | 196 | 0.0 | 0.0 | 0.00 | 0.00 | 0.00 | 65 | 1017.9 |
| 20260905213426 | 63 | 248 | 0.0 | 0.0 | 0.00 | 0.00 | 0.00 | 64 | 1017.8 |
| 20260905213145 | 63 | 248 | 0.0 | 0.0 | 0.00 | 0.00 | 0.00 | 63 | 1017.8 |
| 20260905212403 | 63 | 248 | 0.0 | 0.0 | 0.00 | 0.00 | 0.00 | 62 | 1017.6 |
| 20260905211853 | 64 | 248 | 0.0 | 0.0 | 0.00 | 0.00 | 0.00 | 61 | 1017.5 |
| 20260905211344 | 64 | 248 | 0.0 | 0.0 | 0.00 | 0.00 | 0.00 | 61 | 1017.5 |
| 20260905210834 | 64 | 248 | 0.0 | 1.0 | 0.00 | 0.00 | 0.00 | 59 | 1017.4 |
| 20260905210325 | 64 | 248 | 0.0 | 1.0 | 0.00 | 0.00 | 0.00 | 59 | 1017.4 |
| 20260905205804 | 64 | 248 | 0.0 | 1.0 | 0.00 | 0.00 | 0.00 | 57 | 1017.3 |
| 20260905205252 | 64 | 248 | 0.0 | 1.0 | 0.00 | 0.00 | 0.00 | 57 | 1017.4 |
| 20260905204744 | 64 | 254 | 0.0 | 1.0 | 0.00 | 0.00 | 0.00 | 57 | 1017.3 |
| 20260905204226 | 64 | 247 | 0.0 | 1.0 | 0.00 | 0.00 | 0.00 | 56 | 1017.3 |
| 20260905203715 | 65 | 246 | 0.0 | 1.0 | 0.00 | 0.00 | 0.00 | 55 | 1017.4 |
| 20260905203204 | 65 | 249 | 0.0 | 2.0 | 0.00 | 0.00 | 0.00 | 55 | 1017.2 |
| 20260905202647 | 65 | 229 | 0.0 | 2.0 | 0.00 | 0.00 | 0.00 | 55 | 1017.1 |
| 20260905202408 | 65 | 247 | 0.0 | 2.0 | 0.00 | 0.00 | 0.00 | 54 | 1017.0 |
| 20260905201626 | 65 | 228 | 1.0 | 3.0 | 0.00 | 0.00 | 0.00 | 54 | 1017.1 |
| 20260905201117 | 65 | 216 | 1.0 | 3.0 | 0.00 | 0.00 | 0.00 | 53 | 1017.0 |
| 20260905200603 | 65 | 224 | 1.0 | 2.0 | 0.00 | 0.00 | 0.00 | 52 | 1017.0 |
| 20260905200052 | 65 | 220 | 0.0 | 2.0 | 0.00 | 0.00 | 0.00 | 53 | 1016.9 |
| 20260905195539 | 65 | 259 | 1.0 | 2.0 | 0.00 | 0.00 | 0.00 | 52 | 1016.7 |
| 20260905195031 | 65 | 238 | 2.0 | 10.0 | 0.00 | 0.00 | 0.00 | 52 | 1016.8 |
| 20260905194749 | 65 | 218 | 4.0 | 10.0 | 0.00 | 0.00 | 0.00 | 52 | 1016.7 |
| 20260905194003 | 65 | 239 | 4.0 | 10.0 | 0.00 | 0.00 | 0.00 | 51 | 1016.7 |
| 20260905193449 | 65 | 226 | 3.0 | 10.0 | 0.00 | 0.00 | 0.00 | 50 | 1016.6 |
| 20260905192937 | 65 | 232 | 3.0 | 10.0 | 0.00 | 0.00 | 0.00 | 50 | 1016.6 |
| 20260905192436 | 65 | 252 | 3.0 | 10.0 | 0.00 | 0.00 | 0.00 | 51 | 1016.4 |
| 20260905191923 | 65 | 221 | 3.0 | 10.0 | 0.00 | 0.00 | 0.00 | 52 | 1016.4 |
| 20260905191423 | 66 | 270 | 3.0 | 11.0 | 0.00 | 0.00 | 0.00 | 53 | 1016.3 |
| 20260905191413 | 66 | 251 | 2.0 | 10.0 | 0.00 | 0.00 | 0.00 | 52 | 1016.4 |
| 20260905185913 | 65 | 239 | 6.0 | 13.0 | 0.00 | 0.00 | 0.00 | 52 | 1016.0 |
| 20260905185410 | 65 | 214 | 7.0 | 13.0 | 0.00 | 0.00 | 0.00 | 51 | 1016.0 |
| 20260905184909 | 66 | 229 | 3.0 | 11.0 | 0.00 | 0.00 | 0.00 | 51 | 1015.9 |
| 20260905184409 | 66 | 226 | 1.0 | 10.0 | 0.00 | 0.00 | 0.00 | 52 | 1016.0 |
| 20260905183909 | 66 | 234 | 5.0 | 10.0 | 0.00 | 0.00 | 0.00 | 52 | 1016.0 |
| 20260905183637 | 66 | 241 | 5.0 | 10.0 | 0.00 | 0.00 | 0.00 | 52 | 1015.9 |
| 20260905182907 | 67 | 223 | 3.0 | 10.0 | 0.00 | 0.00 | 0.00 | 51 | 1015.9 |
| 20260905182405 | 67 | 202 | 1.0 | 9.0 | 0.00 | 0.00 | 0.00 | 51 | 1016.0 |
| 20260905181903 | 67 | 242 | 2.0 | 9.0 | 0.00 | 0.00 | 0.00 | 51 | 1015.9 |
| 20260905181633 | 66 | 238 | 2.0 | 9.0 | 0.00 | 0.00 | 0.00 | 51 | 1015.9 |
| 20260905181135 | 66 | 259 | 1.0 | 8.0 | 0.00 | 0.00 | 0.00 | 52 | 1016.0 |
| 20260905180403 | 66 | 250 | 1.0 | 6.0 | 0.00 | 0.00 | 0.00 | 53 | 1016.0 |
| 20260905175852 | 66 | 258 | 1.0 | 6.0 | 0.00 | 0.00 | 0.00 | 51 | 1016.0 |
| 20260905175351 | 67 | 272 | 2.0 | 11.0 | 0.00 | 0.00 | 0.00 | 52 | 1015.9 |
| 20260905174851 | 67 | 272 | 2.0 | 11.0 | 0.00 | 0.00 | 0.00 | 53 | 1016.0 |
| 20260905174349 | 67 | 245 | 1.0 | 2.0 | 0.00 | 0.00 | 0.00 | 54 | 1016.0 |
| 20260905173847 | 67 | 197 | 1.0 | 9.0 | 0.00 | 0.00 | 0.00 | 54 | 1016.1 |
| 20260905173347 | 66 | 285 | 2.0 | 10.0 | 0.00 | 0.00 | 0.00 | 54 | 1016.1 |
| 20260905172845 | 67 | 232 | 0.0 | 10.0 | 0.00 | 0.00 | 0.00 | 57 | 1016.2 |
| 20260905172616 | 66 | 254 | 1.0 | 7.0 | 0.00 | 0.00 | 0.00 | 57 | 1016.2 |
| 20260905172117 | 65 | 289 | 2.0 | 9.0 | 0.00 | 0.00 | 0.00 | 57 | 1016.3 |
| 20260905171346 | 65 | 234 | 2.0 | 9.0 | 0.00 | 0.00 | 0.00 | 56 | 1016.3 |
| 20260905171115 | 66 | 217 | 1.0 | 6.0 | 0.00 | 0.00 | 0.00 | 55 | 1016.4 |
| 20260905170342 | 65 | 247 | 1.0 | 9.0 | 0.00 | 0.00 | 0.00 | 56 | 1016.4 |
| 20260905170113 | 65 | 209 | 2.0 | 10.0 | 0.00 | 0.00 | 0.00 | 58 | 1016.6 |
| 20260905165335 | 65 | 175 | 2.0 | 10.0 | 0.00 | 0.00 | 0.00 | 59 | 1016.6 |
| 20260905164836 | 65 | 229 | 1.0 | 8.0 | 0.00 | 0.00 | 0.00 | 61 | 1016.7 |
| 20260905164334 | 65 | 257 | 0.0 | 2.0 | 0.00 | 0.00 | 0.00 | 62 | 1016.8 |
| 20260905164105 | 65 | 243 | 0.0 | 2.0 | 0.00 | 0.00 | 0.00 | 63 | 1016.8 |
| 20260905163601 | 65 | 206 | 0.0 | 2.0 | 0.00 | 0.00 | 0.00 | 63 | 1016.8 |
| 20260905162831 | 65 | 225 | 0.0 | 7.0 | 0.00 | 0.00 | 0.00 | 61 | 1016.8 |
| 20260905162331 | 65 | 223 | 1.0 | 7.0 | 0.00 | 0.00 | 0.00 | 61 | 1016.7 |
| 20260905161830 | 64 | 215 | 3.0 | 9.0 | 0.00 | 0.00 | 0.00 | 61 | 1016.7 |
| 20260905161328 | 64 | 218 | 2.0 | 9.0 | 0.00 | 0.00 | 0.00 | 60 | 1016.8 |
| 20260905161322 | 65 | 225 | 0.0 | 5.0 | 0.00 | 0.00 | 0.00 | 62 | 1016.8 |
| 20260905160547 | 64 | 232 | 1.0 | 2.0 | 0.00 | 0.00 | 0.00 | 63 | 1016.9 |
| 20260905155817 | 64 | 270 | 1.0 | 9.0 | 0.00 | 0.00 | 0.00 | 65 | 1016.8 |
| 20260905155313 | 64 | 208 | 1.0 | 9.0 | 0.00 | 0.00 | 0.00 | 64 | 1016.8 |
| 20260905154255 | 64 | 244 | 1.0 | 9.0 | 0.00 | 0.00 | 0.00 | 66 | 1017.0 |
| 20260905153752 | 64 | 185 | 3.0 | 9.0 | 0.00 | 0.00 | 0.00 | 68 | 1017.1 |
| 20260905153243 | 63 | 262 | 4.0 | 10.0 | 0.00 | 0.00 | 0.00 | 66 | 1017.0 |
| 20260905152743 | 63 | 213 | 3.0 | 10.0 | 0.00 | 0.00 | 0.00 | 65 | 1017.2 |
| 20260905152514 | 63 | 210 | 1.0 | 7.0 | 0.00 | 0.00 | 0.00 | 66 | 1017.4 |
| 20260905151742 | 63 | 245 | 1.0 | 7.0 | 0.00 | 0.00 | 0.00 | 68 | 1017.5 |
| 20260905151243 | 63 | 170 | 2.0 | 5.0 | 0.00 | 0.00 | 0.00 | 70 | 1017.5 |
| 20260905150737 | 63 | 210 | 2.0 | 5.0 | 0.00 | 0.00 | 0.00 | 70 | 1017.7 |
| 20260905150233 | 63 | 219 | 2.0 | 5.0 | 0.00 | 0.00 | 0.00 | 70 | 1017.7 |
| 20260905145959 | 63 | 245 | 1.0 | 4.0 | 0.00 | 0.00 | 0.00 | 69 | 1017.6 |
| 20260905145453 | 63 | 213 | 1.0 | 5.0 | 0.00 | 0.00 | 0.00 | 68 | 1017.6 |
| 20260905144719 | 63 | 257 | 1.0 | 5.0 | 0.00 | 0.00 | 0.00 | 71 | 1017.7 |
| 20260905144218 | 63 | 238 | 1.0 | 5.0 | 0.00 | 0.00 | 0.00 | 73 | 1017.7 |
| 20260905143711 | 62 | 238 | 2.0 | 6.0 | 0.00 | 0.00 | 0.00 | 72 | 1017.9 |
| 20260905143209 | 62 | 224 | 1.0 | 6.0 | 0.00 | 0.00 | 0.00 | 72 | 1017.8 |
| 20260905142702 | 62 | 137 | 1.0 | 3.0 | 0.00 | 0.00 | 0.00 | 74 | 1017.8 |
| 20260905142153 | 61 | 223 | 1.0 | 4.0 | 0.00 | 0.00 | 0.00 | 75 | 1017.9 |
| 20260905141923 | 62 | 237 | 1.0 | 4.0 | 0.00 | 0.00 | 0.00 | 74 | 1018.0 |